Al Qutayfah, Syria
Current Conditions -  °F | °C
As of 4:00 AM on Saturday 29 Nov 2014 (Local Time) from OSDI Reporting Station
Clear Clear  
Wind Chill: 39°   Ceiling: Unl
Heat Index: 39°   Visibility: 0.06mi
Dew Point: 39°   Wind: 0mph
Humidity: 100%   Direction: NA
Pressure: 30.27"   Gusts: NA
Location:  33.75°N, 36.6°E
Report Text: OSDI 290100Z 00000KT 0100 R23/0100 04/04 Q1025
Loading
Personal Weather Stations






























Interactive Weather Map New forecast layout! Learn more

10-Day Weather Forecast

Advertisements
Track Severe Weather on mobile